Location: Ward Pound Ridge Reservation
(41.2500°N, 73.6000°W)
Time: 04:45:49
(UTC-05:00)

Vanguard 2 Rocket - All Passes

Search period start: 25 February 2018 00:00
Search period end: 07 March 2018 00:00
Orbit: 555 x 3327 km, 32.9° (Epoch: 24 February)

Date Brightness Start Highest point End Pass type
(mag) Time Alt. Az. Time Alt. Az. Time Alt. Az.
25 Feb - 01:36:54 10° W 01:52:02 55° SSW 02:11:29 10° SE visible
25 Feb - 03:53:20 10° W 04:08:39 33° SW 04:24:43 10° SSE visible
25 Feb - 20:13:05 10° SSW 20:20:23 33° SE 20:32:02 10° E visible
25 Feb - 22:23:56 10° WSW 22:34:17 59° S 22:51:35 10° E visible
26 Feb - 00:36:58 10° W 00:50:33 59° S 01:10:01 10° ESE visible
26 Feb - 02:52:03 10° W 03:07:24 40° SSW 03:25:08 10° SSE visible
26 Feb - 05:12:49 10° WSW 05:22:59 17° SW 05:33:06 10° SSW visible
26 Feb - 19:15:40 10° S 19:21:12 22° SE 19:29:11 10° E visible
26 Feb - 21:25:11 10° SW 21:33:58 52° SSE 21:49:03 10° E visible
26 Feb - 23:37:27 10° W 23:49:20 61° S 00:08:02 10° ESE visible
27 Feb - 01:51:30 10° W 02:06:01 47° SSW 02:24:42 10° SE visible
27 Feb - 04:09:06 10° W 04:22:11 24° SW 04:36:02 10° S visible
27 Feb - 18:20:05 10° SSE 18:22:24 12° SE 18:25:03 10° ESE visible
27 Feb - 20:26:47 10° SW 20:34:09 41° SSE 20:46:35 10° E visible
27 Feb - 22:38:15 10° WSW 22:48:29 60° S 23:05:43 10° ESE visible
28 Feb - 00:51:29 10° W 01:04:41 53° SSW 01:23:33 10° SE visible
28 Feb - 03:07:12 10° W 03:21:09 31° SW 03:37:14 10° SSE visible
28 Feb - 19:28:50 10° SSW 19:34:49 29° SE 19:44:10 10° E visible
28 Feb - 21:39:23 10° WSW 21:48:05 56° S 22:03:17 10° E visible
28 Feb - 23:51:55 10° W 00:03:33 56° S 00:21:49 10° ESE visible
01 Mar - 02:06:20 10° W 02:19:57 38° SSW 02:37:21 10° SSE visible
01 Mar - 04:26:36 10° WSW 04:35:45 16° SW 04:45:22 10° SSW visible
01 Mar - 18:31:37 10° S 18:35:53 18° SE 18:41:39 10° E visible
01 Mar - 20:40:49 10° SW 20:48:09 48° SSE 21:00:56 10° E visible
01 Mar - 22:52:41 10° W 23:02:45 58° S 23:19:42 10° ESE visible
02 Mar - 01:06:09 10° W 01:18:47 44° SSW 01:36:38 10° SE visible
02 Mar - 03:23:10 10° W 03:34:52 22° SW 03:48:12 10° S visible
02 Mar - 19:42:34 10° SW 19:48:40 37° SSE 19:58:46 10° E visible
02 Mar - 21:53:44 10° WSW 22:02:20 57° S 22:17:25 10° ESE visible
03 Mar - 00:06:28 10° W 00:17:46 49° SSW 00:35:16 10° SE visible
03 Mar - 02:21:37 10° W 02:33:52 29° SSW 02:49:11 10° SSE visible
03 Mar - 18:44:44 10° SSW 18:49:35 25° SSE 18:56:47 10° E visible
03 Mar - 20:55:03 10° WSW 21:02:20 52° S 21:15:11 10° E visible
03 Mar - 23:07:11 10° W 23:17:02 53° S 23:33:27 10° ESE visible
04 Mar - 01:21:05 10° W 01:32:52 35° SSW 01:49:06 10° SSE visible
04 Mar - 03:41:17 10° WSW 03:48:40 14° SW 03:56:42 10° SSW visible
04 Mar - 17:47:45 10° S 17:50:47 15° SE 17:54:33 10° ESE daylight
04 Mar - 19:56:37 10° SW 20:02:44 44° SSE 20:13:10 10° E visible
04 Mar - 22:08:11 10° WSW 22:16:38 54° S 22:31:23 10° ESE visible
05 Mar - 00:21:12 10° W 00:31:59 40° SSW 00:48:13 10° SE visible
05 Mar - 02:37:53 10° WSW 02:47:49 20° SW 02:59:43 10° S visible
05 Mar - 18:58:28 10° SW 19:03:30 33° SSE 19:11:26 10° E visible
05 Mar - 21:09:26 10° WSW 21:16:36 53° S 21:29:19 10° ESE visible
05 Mar - 23:21:48 10° W 23:31:19 45° SSW 23:46:49 10° SE visible
06 Mar - 01:36:34 10° W 01:46:58 25° SSW 02:00:39 10° SSE visible
06 Mar - 18:00:43 10° SSW 18:04:35 22° SSE 18:09:55 10° ESE daylight
06 Mar - 20:10:53 10° WSW 20:16:57 47° S 20:27:26 10° ESE visible
06 Mar - 22:22:44 10° W 22:30:59 48° S 22:45:05 10° ESE visible
